This is the latest recevied weather packets stored in our database for station/object YT1XN-8. If no packets are shown the sender has not sent any weather packets the latest 10 day(s).
| Time | Temp. | Humidity | Pressure | Rain* | Wind** | Luminosity | Snow |
|---|---|---|---|---|---|---|---|
| 1777132121 | 22.78° C | 42% | 1014.3 hPa | 0 mm | - | - | - |
| 1777131645 | 22.78° C | 39% | 1014.3 hPa | 0 mm | - | - | - |
| 1777131461 | 23.33° C | 41% | 1014.3 hPa | 0 mm | - | - | - |
| 1777130801 | 23.89° C | 41% | 1014.5 hPa | 0 mm | - | - | - |
| 1777130141 | 23.89° C | 37% | 1014.4 hPa | 0 mm | - | - | - |
| 1777129481 | 24.44° C | 39% | 1014.4 hPa | 0 mm | - | - | - |
| 1777129242 | 24.44° C | 40% | 1014.3 hPa | 0 mm | - | - | - |
| 1777128821 | 25° C | 39% | 1014.4 hPa | 0 mm | - | - | - |
| 1777128642 | 25° C | 37% | 1014.4 hPa | 0 mm | - | - | - |
| 1777128161 | 25.56° C | 38% | 1014.5 hPa | 0 mm | - | - | - |
| 1777127501 | 26.11° C | 39% | 1014.4 hPa | 0 mm | - | - | - |
| 1777127442 | 26.11° C | 40% | 1014.5 hPa | 0 mm | - | - | - |
| 1777126841 | 25.56° C | 39% | 1014.5 hPa | 0 mm | - | - | - |
| 1777126181 | 26.11° C | 39% | 1014.5 hPa | 0 mm | - | - | - |
| 1777125521 | 25.56° C | 37% | 1014.7 hPa | 0 mm | - | - | - |
| 1777124861 | 25.56° C | 36% | 1014.6 hPa | 0 mm | - | - | - |
| 1777124201 | 26.11° C | 38% | 1014.8 hPa | 0 mm | - | - | - |
| 1777123541 | 26.11° C | 37% | 1015 hPa | 0 mm | - | - | - |
| 1777123242 | 25.56° C | 38% | 1015.1 hPa | 0 mm | - | - | - |
| 1777122881 | 26.11° C | 38% | 1015.1 hPa | 0 mm | - | - | - |
| 1777122221 | 26.11° C | 37% | 1015.2 hPa | 0 mm | - | - | - |
| 1777121561 | 25.56° C | 40% | 1015.4 hPa | 0 mm | - | - | - |
| 1777120900 | 25° C | 40% | 1015.5 hPa | 0 mm | - | - | - |
| 1777120241 | 25° C | 38% | 1015.8 hPa | 0 mm | - | - | - |
| 1777119580 | 25.56° C | 36% | 1016 hPa | 0 mm | - | - | - |
* Rain latest hour (hover to see other rain measurements)
** Current wind speed in m/s (hover to see current wind gust speed)